Weather History for KFBL - March, 2014

Change the Weather History Date:

Sunday, March 2, 2014

  Actual Average Record
Temperature  
Mean Temperature -6 °F -  
Max Temperature 3 °F 35 °F 57 °F (1990)
Min Temperature -14 °F 15 °F -15 °F (1972)
Degree Days  
Heating Degree Days 70    
Moisture  
Dew Point -22 °F    
Average Humidity 46    
Maximum Humidity 60    
Minimum Humidity 32    
Precipitation  
Precipitation 0.00 in - - ()
Sea Level Pressure  
Sea Level Pressure 30.51 in    
Wind  
Wind Speed 8 mph (WNW)    
Max Wind Speed 13 mph    
Max Gust Speed -    
Visibility 10 miles    
Events Snow    
Averages and records for this station are not official NWS values.
T = Trace of Precipitation, MM = Missing Value Source: NWS Daily Summary

Daily Weather History Graph

Daily Weather History Graph

Search for Another Location

Airport or City:

Trip Planner

Search our weather history database for the weather conditions in past years. The results will help you decide how hot, cold, wet, or windy it might be!

Date:

Astronomy

Mar. 02, 2014 Rise Set
Actual Time 6:48 AM CST 6:02 PM CST
Civil Twilight 6:19 AM CST 6:31 PM CST
Nautical Twilight 5:46 AM CST 7:05 PM CST
Astronomical Twilight 5:12 AM CST 7:39 PM CST
Moon 7:15 AM CST (3/2) 8:05 PM CST (3/2)
Length of Visible Light 12h 12m
Length of Day
11h 14m
Waxing Crescent, 3% of the Moon is Illuminated
Mar 2
Waxing Crescent
Mar 8
First Quarter
Mar 16
Full
Mar 23
Last Quarter
Mar 30
New

Hourly Weather History & Observations

Time (CST) Temp. Windchill Dew Point Humidity Pressure Visibility Wind Dir Wind Speed Gust Speed Precip Events Conditions
12:14 AM -5.8 °F -23.4 °F -20.2 °F 50% 30.49 in 10.0 mi WNW 10.4 mph - N/A   Clear
12:34 AM -5.8 °F -22.4 °F -20.2 °F 50% 30.49 in 10.0 mi WNW 9.2 mph - N/A   Scattered Clouds
12:54 AM -5.8 °F -22.4 °F -22.0 °F 46% 30.51 in 10.0 mi WNW 9.2 mph - N/A   Mostly Cloudy
1:14 AM -5.8 °F -24.4 °F -22.0 °F 46% 30.50 in 10.0 mi WNW 11.5 mph - N/A   Scattered Clouds
1:34 AM -5.8 °F -22.4 °F -22.0 °F 46% 30.50 in 10.0 mi NW 9.2 mph - N/A   Clear
1:54 AM -7.6 °F -23.4 °F -22.0 °F 50% 30.50 in 10.0 mi NW 8.1 mph - N/A   Clear
2:14 AM -7.6 °F -24.6 °F -23.8 °F 45% 30.50 in 10.0 mi NW 9.2 mph - N/A   Clear
2:34 AM -7.6 °F - -23.8 °F 45% 30.50 in 10.0 mi North - - N/A   Clear
2:54 AM -9.4 °F -25.6 °F -23.8 °F 49% 30.50 in 10.0 mi NW 8.1 mph - N/A   Clear
3:14 AM -9.4 °F -24.3 °F -25.6 °F 45% 30.50 in 10.0 mi NW 6.9 mph - N/A   Clear
3:34 AM -9.4 °F -25.6 °F -25.6 °F 45% 30.50 in 10.0 mi WNW 8.1 mph - N/A   Clear
3:54 AM -9.4 °F -24.3 °F -25.6 °F 45% 30.50 in 10.0 mi NW 6.9 mph - N/A   Clear
4:14 AM -11.2 °F -27.8 °F -25.6 °F 49% 30.50 in 10.0 mi NW 8.1 mph - N/A   Clear
4:34 AM -11.2 °F -26.4 °F -25.6 °F 49% 30.51 in 10.0 mi NW 6.9 mph - N/A   Clear
4:54 AM -11.2 °F -27.8 °F -27.4 °F 45% 30.51 in 10.0 mi WNW 8.1 mph - N/A   Clear
5:14 AM -11.2 °F -26.4 °F -27.4 °F 45% 30.53 in 10.0 mi WNW 6.9 mph - N/A   Clear
5:34 AM -13.0 °F -28.6 °F -27.4 °F 49% 30.52 in 10.0 mi WNW 6.9 mph - N/A   Clear
5:54 AM -13.0 °F -28.6 °F -27.4 °F 49% 30.53 in 10.0 mi WNW 6.9 mph - N/A   Clear
6:14 AM -13.0 °F -28.6 °F -29.2 °F 44% 30.53 in 10.0 mi WNW 6.9 mph - N/A   Clear
6:34 AM -14.8 °F -29.1 °F -29.2 °F 48% 30.53 in 10.0 mi WNW 5.8 mph - N/A   Clear
6:54 AM -14.8 °F -29.1 °F -29.2 °F 48% 30.52 in 10.0 mi NW 5.8 mph - N/A   Clear
7:14 AM -14.8 °F -27.2 °F -29.2 °F 48% 30.53 in 10.0 mi WNW 4.6 mph - N/A   Clear
7:34 AM -13.0 °F -25.1 °F -27.4 °F 49% 30.54 in 10.0 mi WSW 4.6 mph - N/A   Clear
7:54 AM -13.0 °F -27.0 °F -27.4 °F 49% 30.54 in 10.0 mi WNW 5.8 mph - N/A   Clear
8:14 AM -11.2 °F -27.8 °F -27.4 °F 45% 30.54 in 10.0 mi WNW 8.1 mph - N/A   Clear
8:34 AM -9.4 °F -22.7 °F -25.6 °F 45% 30.54 in 10.0 mi WNW 5.8 mph - N/A   Clear
8:54 AM -9.4 °F -26.8 °F -25.6 °F 45% 30.54 in 10.0 mi NW 9.2 mph - N/A   Clear
9:14 AM -7.6 °F -23.4 °F -25.6 °F 41% 30.54 in 10.0 mi NW 8.1 mph - N/A   Clear
9:34 AM -7.6 °F -26.6 °F -25.6 °F 41% 30.53 in 5.0 mi NW 11.5 mph - N/A Snow Light Snow
9:54 AM -7.6 °F -24.6 °F -25.6 °F 41% 30.54 in 10.0 mi NW 9.2 mph - N/A   Clear
10:14 AM -5.8 °F -19.9 °F -25.6 °F 38% 30.53 in 10.0 mi WNW 6.9 mph - N/A   Clear
10:34 AM -5.8 °F -21.2 °F -25.6 °F 38% 30.53 in 10.0 mi West 8.1 mph - N/A   Clear
10:54 AM -5.8 °F -23.4 °F -25.6 °F 38% 30.53 in 10.0 mi West 10.4 mph - N/A   Clear
11:14 AM -4.0 °F -19.0 °F -25.6 °F 35% 30.54 in 10.0 mi West 8.1 mph - N/A   Clear
11:34 AM -2.2 °F -16.8 °F -25.6 °F 32% 30.55 in 10.0 mi West 8.1 mph - N/A   Clear
11:54 AM -2.2 °F -15.6 °F -23.8 °F 35% 30.54 in 10.0 mi West 6.9 mph - N/A   Clear
12:14 PM -2.2 °F -16.8 °F -23.8 °F 35% 30.54 in 10.0 mi WNW 8.1 mph - N/A   Clear
12:34 PM -0.4 °F -15.7 °F -22.0 °F 36% 30.55 in 10.0 mi West 9.2 mph - N/A   Clear
12:54 PM -0.4 °F -17.6 °F -22.0 °F 36% 30.53 in 5.0 mi West 11.5 mph - N/A Snow Light Snow
1:14 PM -0.4 °F -16.7 °F -20.2 °F 39% 30.52 in 10.0 mi West 10.4 mph - N/A Snow Light Snow
1:34 PM -0.4 °F -16.7 °F -20.2 °F 39% 30.51 in 7.0 mi West 10.4 mph - N/A Snow Light Snow
1:54 PM 1.4 °F -15.3 °F -20.2 °F 36% 30.50 in 7.0 mi West 11.5 mph - N/A Snow Light Snow
2:14 PM 1.4 °F -15.3 °F -18.4 °F 39% 30.50 in 7.0 mi WNW 11.5 mph - N/A Snow Light Snow
2:34 PM 1.4 °F -14.5 °F -18.4 °F 39% 30.50 in 10.0 mi West 10.4 mph - N/A Snow Light Snow
2:54 PM 1.4 °F -15.3 °F -18.4 °F 39% 30.49 in 10.0 mi West 11.5 mph - N/A   Clear
3:14 PM 1.4 °F -15.3 °F -18.4 °F 39% 30.50 in 7.0 mi West 11.5 mph - N/A   Clear
3:34 PM 1.4 °F -12.5 °F -16.6 °F 43% 30.50 in 7.0 mi WNW 8.1 mph - N/A Snow Light Snow
3:54 PM 3.2 °F -11.3 °F -16.6 °F 39% 30.50 in 10.0 mi West 9.2 mph - N/A   Clear
4:14 PM 3.2 °F -12.2 °F -16.6 °F 39% 30.50 in 10.0 mi West 10.4 mph - N/A Snow Light Snow
4:34 PM 3.2 °F -13.1 °F -16.6 °F 39% 30.49 in 10.0 mi WNW 11.5 mph - N/A   Clear
4:54 PM 1.4 °F -16.1 °F -16.6 °F 43% 30.49 in 10.0 mi West 12.7 mph - N/A Snow Light Snow
5:14 PM 1.4 °F -13.5 °F -16.6 °F 43% 30.49 in 7.0 mi West 9.2 mph - N/A   Clear
5:34 PM 1.4 °F -11.3 °F -16.6 °F 43% 30.48 in 10.0 mi West 6.9 mph - N/A   Clear
5:54 PM -0.4 °F -14.7 °F -16.6 °F 46% 30.47 in 10.0 mi West 8.1 mph - N/A   Clear
6:14 PM -0.4 °F -13.4 °F -16.6 °F 46% 30.47 in 10.0 mi West 6.9 mph - N/A   Clear
6:34 PM -2.2 °F -12.5 °F -16.6 °F 50% 30.47 in 10.0 mi West 4.6 mph - N/A   Clear
6:54 PM -2.2 °F -12.5 °F -16.6 °F 50% 30.47 in 10.0 mi West 4.6 mph - N/A   Clear
7:14 PM -2.2 °F -10.4 °F -16.6 °F 50% 30.46 in 10.0 mi West 3.5 mph - N/A   Clear
7:34 PM -4.0 °F - -16.6 °F 55% 30.47 in 10.0 mi Calm Calm - N/A   Clear
7:54 PM -2.2 °F - -14.8 °F 55% 30.46 in 10.0 mi Calm Calm - N/A   Clear
8:14 PM -7.6 °F -16.5 °F -18.4 °F 59% 30.46 in 10.0 mi WNW 3.5 mph - N/A   Clear
8:34 PM -4.0 °F -16.3 °F -16.6 °F 55% 30.45 in 10.0 mi WNW 5.8 mph - N/A   Clear
8:54 PM -5.8 °F -16.7 °F -16.6 °F 60% 30.46 in 10.0 mi NW 4.6 mph - N/A   Clear
9:14 PM -4.0 °F -14.6 °F -16.6 °F 55% 30.48 in 10.0 mi WNW 4.6 mph - N/A   Clear
9:34 PM -4.0 °F - -16.6 °F 55% - 10.0 mi Calm Calm - N/A   Clear
9:54 PM -2.2 °F - -14.8 °F 55% - 10.0 mi Calm Calm - N/A   Clear
10:14 PM -2.2 °F -12.5 °F -14.8 °F 55% 30.49 in 10.0 mi WNW 4.6 mph - N/A   Clear
10:34 PM -5.8 °F - -16.6 °F 60% 30.50 in 10.0 mi Calm Calm - N/A   Clear
10:54 PM -4.0 °F -14.6 °F -16.6 °F 55% 30.50 in 10.0 mi WNW 4.6 mph - N/A   Clear
11:14 PM -5.8 °F -14.5 °F -18.4 °F 55% 30.50 in 10.0 mi WNW 3.5 mph - N/A   Clear
11:34 PM -5.8 °F -18.4 °F -16.6 °F 60% 30.50 in 10.0 mi WNW 5.8 mph - N/A   Clear
11:54 PM -7.6 °F - -18.4 °F 59% 30.50 in 10.0 mi Calm Calm - N/A   Clear